Temperature
29 30 31 31 31 31 31 31 31 30 30 30 30 29 29 27 27 27 26 26 25 24 23 22 22 21 21 20 20 20 19 19 19 19 19 19 18 18 18 18 18 18 18 18
30 30 31 31 31 31 31 31 31 30 30 30 29 29 29 28 27 27 26 26 25 24 23 22 22 21 21 20 20 20 20 19 19 19 19 19 19 18 18 18 18 18 18 18
30 31 31 31 31 31 31 31 31 30 30 30 29 29 28 28 27 27 26 26 25 24 24 23 22 21 21 20 20 20 20 20 19 19 19 19 19 19 19 18 18 18 18 18
30 31 30 30 30 31 30 31 30 30 30 30 30 29 29 29 28 28 27 26 26 25 24 23 22 21 21 21 20 20 20 20 20 19 19 19 19 19 18 18 18 18 18 18
30 30 30 30 30 31 30 30 30 30 30 30 30 30 30 29 28 28 27 26 26 25 24 23 22 22 21 21 20 20 20 20 20 20 19 19 19 19 18 18 18 18 18 18
30 30 30 30 30 30 30 30 30 30 31 29 30 30 30 29 29 29 28 26 25 25 24 23 22 21 21 21 20 20 20 20 20 19 19 19 19 19 18 18 18 18 18 18
29 30 30 30 30 30 30 30 29 29 29 30 30 30 30 29 29 29 28 27 26 25 24 23 22 21 21 21 20 20 20 19 19 19 19 19 19 18 18 18 18 18 18 18
29 29 30 30 30 30 30 31 29 29 29 30 30 30 30 29 28 27 27 26 25 25 24 23 22 21 21 21 20 20 19 19 19 19 19 19 19 18 18 18 18 18 18 17
30 30 30 30 30 31 30 30 31 30 30 30 30 30 30 29 28 28 27 26 25 25 24 23 22 21 21 21 20 20 19 19 19 19 19 19 19 18 18 18 18 18 17 17
30 29 30 30 30 30 30 31 30 30 28 29 29 30 30 28 28 28 27 26 25 24 23 23 22 21 21 20 20 20 19 19 19 19 19 18 18 18 18 18 18 18 17 17
30 29 29 29 29 30 30 30 30 30 29 29 29 30 30 29 28 28 27 26 25 24 24 23 22 21 20 20 20 20 19 19 19 19 19 18 18 18 18 18 17 17 17 17
29 30 29 29 30 30 30 30 30 29 28 29 29 29 29 29 28 28 27 25 25 24 23 23 22 21 21 20 20 20 19 19 19 18 18 18 18 18 17 17 17 17 17 17
29 29 28 28 29 29 29 30 30 30 30 29 29 29 29 28 28 27 26 25 24 23 23 22 21 21 20 20 20 19 19 19 19 18 18 18 18 17 17 17 17 17 16 16
28 29 28 28 29 29 29 29 29 29 29 29 29 29 29 28 27 26 25 24 23 23 22 21 21 20 20 19 19 19 19 19 18 18 18 18 17 17 17 17 16 16 16 16
28 28 28 29 29 29 29 29 29 29 30 29 29 29 29 28 27 26 24 24 23 23 22 21 20 20 20 19 19 19 19 18 18 18 18 17 17 17 17 16 16 16 16 16
27 27 28 28 29 29 28 29 29 29 29 29 29 29 29 28 27 25 24 23 23 22 22 21 20 19 19 19 19 18 18 18 17 17 17 17 17 16 16 16 16 16 16 15
27 26 27 28 28 28 28 29 29 29 29 29 29 29 28 27 26 24 23 23 22 22 21 20 20 19 18 18 18 18 17 17 17 17 17 16 16 16 16 16 15 15 15 15
26 26 27 28 27 26 29 29 29 29 29 29 29 29 28 27 25 24 23 22 22 21 20 20 19 19 18 18 17 17 17 16 16 16 16 16 16 15 15 15 15 15 15 15
25 25 27 27 27 27 28 28 28 28 28 28 28 28 27 25 24 24 22 21 21 20 19 19 19 18 18 17 17 17 16 16 16 15 15 15 15 15 15 15 15 14 14 14
25 25 26 26 26 26 28 28 27 28 27 27 27 27 26 25 26 25 22 20 20 19 19 18 18 18 17 17 16 16 16 16 15 15 15 15 15 15 15 14 14 14 14 14
25 25 25 26 26 27 28 27 27 26 27 26 26 25 25 25 25 23 21 20 19 18 18 18 17 17 17 16 16 16 16 15 15 15 14 14 14 14 14 14 14 13 13 13
25 26 25 25 25 26 26 26 26 26 25 25 25 25 24 23 22 21 20 19 18 18 17 17 17 17 16 16 16 16 15 15 14 14 14 14 14 14 14 13 13 13 13 13
25 25 26 26 26 24 24 24 24 23 23 23 24 23 23 22 21 20 19 18 18 17 17 17 16 16 16 15 15 15 15 14 14 14 14 14 13 13 13 13 13 13 13 13
24 22 24 24 25 24 23 23 22 22 22 22 22 22 22 21 20 19 18 17 17 17 16 16 16 16 15 15 15 14 14 14 14 13 13 13 13 13 13 13 13 13 13 13
23 23 23 23 23 23 22 22 21 21 21 21 21 21 21 20 19 18 18 17 16 16 16 16 15 15 15 14 14 14 14 14 13 13 13 13 13 13 13 12 12 12 12 12
23 23 23 23 23 23 22 21 21 21 20 20 20 20 19 19 18 18 17 16 16 16 16 15 15 15 14 14 13 13 13 13 13 13 13 13 13 13 12 12 12 12 12 11
Wind_Speed
6 8 8 6 6 6 5 4 2 1 0 3 3 2 4 5 5 5 5 6 6 5 5 5 5 4 3 3 2 1 1 2 1 1 1 1 2 2 2 2 3 3 3 2
8 10 7 5 5 6 6 5 3 1 1 3 3 3 4 6 6 6 6 6 6 6 6 5 5 4 4 3 3 2 2 2 1 1 1 1 1 1 2 2 3 3 3 2
11 5 4 6 7 7 6 6 4 2 2 4 4 4 6 6 6 6 6 6 6 6 6 6 6 5 4 3 3 2 2 2 2 1 1 1 2 1 1 1 1 2 2 2
9 6 6 7 8 8 6 4 4 4 5 3 4 4 4 6 7 7 6 7 7 7 7 7 6 5 4 4 3 3 3 2 2 2 2 2 1 0 0 0 1 1 1 1
8 7 8 9 7 7 4 3 5 6 7 6 5 5 2 5 6 7 7 6 7 8 8 7 7 6 5 4 4 4 3 3 2 2 2 3 2 1 1 1 1 0 1 0
8 6 6 7 5 6 5 5 5 7 8 6 3 6 2 2 3 4 6 7 7 7 8 8 7 6 5 4 4 4 4 3 3 3 3 3 2 2 1 1 0 1 1 0
10 9 7 6 7 8 9 8 6 6 6 4 1 5 2 1 1 3 5 6 6 7 7 8 7 6 5 5 4 4 4 3 3 3 3 3 3 3 3 2 1 2 1 1
10 10 9 8 10 8 10 11 8 7 6 3 4 3 1 2 1 2 4 5 5 6 6 6 6 6 5 5 5 4 4 3 3 3 3 3 3 3 2 2 2 2 2 1
8 7 6 6 7 9 9 10 8 8 8 7 4 3 2 2 2 4 5 5 5 5 6 6 6 5 5 5 5 5 4 4 3 3 2 2 2 2 2 2 2 2 2 1
7 7 6 5 6 6 8 8 7 8 7 8 5 5 2 4 4 5 6 5 5 6 6 6 5 5 4 5 5 4 4 3 3 2 2 2 2 2 2 2 2 2 1 1
9 8 7 7 8 8 7 8 8 7 7 8 6 2 3 3 5 6 6 6 6 6 6 6 5 5 4 4 4 4 4 3 3 2 2 2 2 2 2 1 1 1 1 1
8 8 8 8 5 4 7 8 9 8 7 8 8 2 5 3 4 5 5 5 5 5 5 5 5 4 4 4 3 3 3 2 2 2 2 2 1 1 1 1 1 1 1 2
6 7 9 9 8 7 7 8 9 9 8 8 9 3 6 5 4 5 5 5 5 5 5 5 5 4 4 3 3 3 2 2 2 2 2 1 1 1 1 1 1 1 1 1
6 8 9 8 5 6 7 8 9 10 8 8 8 5 4 5 5 5 5 6 6 6 6 6 5 4 4 3 3 3 2 1 1 1 1 1 0 1 1 1 1 1 0 1
6 8 8 8 5 6 7 8 9 11 10 9 7 6 3 5 6 5 6 6 7 6 6 6 5 4 4 4 3 2 2 2 1 1 1 1 1 1 1 1 1 1 0 1
5 6 8 9 8 8 8 9 10 10 9 8 7 5 2 4 5 6 6 6 6 5 5 5 5 4 4 4 3 3 3 2 2 2 2 2 2 1 1 2 1 0 1 1
6 6 7 9 9 9 11 10 10 9 9 8 8 4 5 6 7 7 6 6 5 4 4 5 5 4 4 3 3 3 3 3 2 2 3 3 2 2 2 2 2 1 1 1
6 6 6 7 8 11 6 4 7 8 8 8 6 4 5 6 6 6 6 6 5 4 4 4 4 4 4 4 4 3 3 3 3 2 3 3 3 3 2 2 2 2 2 2
7 7 6 7 10 10 5 5 6 7 7 5 5 4 5 6 6 6 5 6 5 4 4 4 4 5 5 4 4 4 3 3 3 3 3 3 1 1 1 1 2 2 2 2
7 8 9 8 11 11 5 4 5 7 8 4 4 5 7 9 7 5 8 7 6 5 5 5 4 5 5 4 4 4 4 4 3 3 2 2 1 1 1 1 2 2 2 2
9 9 11 11 11 8 1 3 6 8 3 3 5 6 8 7 2 7 10 8 7 6 5 5 5 4 4 4 4 3 4 3 2 2 2 2 2 1 1 1 1 2 2 2
9 9 10 10 11 8 2 4 5 2 2 2 4 4 5 5 7 9 10 9 8 6 6 5 5 4 4 4 3 3 3 2 2 1 1 2 1 1 1 1 1 1 2 2
7 5 5 5 4 1 1 2 2 2 1 2 3 3 6 7 8 9 9 9 8 6 5 4 4 4 4 3 2 2 2 2 1 1 1 1 1 2 2 1 1 2 2 3
5 2 4 4 3 1 1 1 0 1 0 1 3 5 7 8 9 9 8 8 7 6 5 4 4 4 4 3 3 2 2 1 1 1 1 1 1 1 2 2 2 2 3 3
4 4 5 6 4 2 1 1 0 1 1 2 4 6 8 9 9 8 8 7 6 5 5 4 4 4 4 3 3 2 2 1 1 1 1 1 1 1 2 2 2 2 3 3
6 6 7 5 3 3 2 0 0 1 2 3 5 7 7 7 8 8 7 7 6 6 5 4 4 4 3 3 2 2 2 1 1 1 1 2 1 1 2 2 2 3 2 1
Wind_Direction
208 229 236 242 252 287 285 284 296 2 42 255 251 234 177 179 186 191 191 184 178 174 167 164 164 160 152 146 144 137 114 105 113 106 103 93 94 86 73 66 61 59 54 58
216 227 242 256 244 246 252 261 260 164 216 269 267 251 192 189 195 193 190 185 177 171 161 165 168 167 164 163 167 168 167 149 162 126 116 90 68 84 84 69 71 63 59 43
234 237 228 233 229 235 244 261 283 279 236 227 259 217 189 193 196 195 197 193 185 183 173 170 174 176 176 176 179 176 176 174 187 191 177 145 148 148 111 92 90 67 57 57
238 230 234 235 233 242 241 253 264 252 253 251 259 281 183 192 198 200 202 199 192 187 182 176 177 179 185 184 178 179 183 181 188 196 196 194 189 161 87 136 93 85 76 63
223 224 234 237 239 246 259 240 241 250 262 268 241 276 156 175 207 203 201 202 197 191 187 182 181 179 184 180 178 175 177 185 192 198 193 209 215 203 188 173 130 185 122 87
238 226 241 241 229 227 201 206 219 234 251 259 264 271 262 179 224 206 199 199 199 192 188 185 183 181 184 181 182 177 171 184 195 199 200 213 224 232 243 240 220 223 185 194
219 216 216 224 214 203 221 237 238 235 234 250 195 262 308 80 191 201 195 193 189 188 186 185 185 187 188 184 187 187 180 191 199 200 209 215 226 227 229 242 233 265 273 270
220 213 206 214 228 230 226 243 256 267 269 264 205 255 37 90 107 163 174 172 171 177 176 175 176 182 187 185 189 190 182 191 196 198 205 217 225 234 236 230 261 258 275 300
231 219 185 208 228 238 229 237 259 265 271 270 248 228 183 136 141 153 156 152 151 158 159 161 164 170 185 185 186 189 186 186 194 193 192 197 213 241 260 242 245 260 272 273
243 233 198 187 203 220 250 242 236 248 261 263 254 251 247 161 178 170 165 159 152 151 151 154 158 167 183 183 177 182 191 188 192 189 204 188 195 211 233 247 265 282 275 278
234 230 205 198 216 218 209 221 239 250 263 269 269 274 91 162 179 179 174 162 153 153 151 151 155 164 174 175 172 177 189 188 185 187 195 213 214 204 214 233 251 248 247 232
227 236 228 215 207 256 237 239 233 241 247 261 273 269 104 147 170 177 167 155 151 152 149 147 147 152 158 160 160 170 182 188 191 191 201 205 213 234 234 228 261 258 235 228
210 234 224 210 201 202 226 231 238 248 250 253 260 239 124 144 154 157 157 153 148 147 141 135 129 130 135 134 136 146 165 184 183 178 187 191 218 250 269 288 292 278 247 225
231 232 242 240 229 202 218 226 227 238 246 251 257 260 164 169 173 161 153 149 148 145 141 135 131 127 120 114 117 129 135 132 119 119 134 120 92 313 318 342 319 295 262 240
230 231 236 252 253 236 233 234 229 237 253 262 261 260 231 183 182 163 150 151 150 148 144 140 138 129 123 114 108 102 95 84 89 107 89 65 40 36 24 21 17 25 336 279
231 236 233 235 235 234 243 241 235 240 248 252 258 253 174 170 164 156 157 159 158 153 149 144 138 131 123 115 110 102 93 91 91 89 77 60 43 39 27 9 14 331 291 294
214 224 237 235 229 236 240 237 236 236 239 245 248 235 159 173 170 169 166 167 163 149 148 144 138 131 125 118 110 104 94 90 89 81 63 48 27 18 13 357 357 334 297 281
225 233 240 241 227 239 240 225 237 240 242 247 251 216 182 174 166 163 165 164 157 145 145 140 135 130 120 111 107 100 93 84 77 69 61 44 23 11 5 352 341 320 302 283
224 225 238 240 239 241 222 207 220 232 236 235 228 199 177 154 154 162 161 156 149 144 138 133 134 127 119 116 112 108 95 79 66 49 41 34 24 19 359 340 322 313 309 293
202 223 237 236 246 244 236 189 209 230 230 203 201 185 176 178 206 175 156 149 144 139 133 131 128 122 119 117 118 115 97 79 60 44 35 32 31 36 2 321 303 308 298 286
202 213 229 237 245 246 179 165 192 223 234 168 198 193 190 199 209 125 139 142 138 130 126 123 118 112 111 115 116 107 91 75 59 54 29 22 30 17 343 330 311 301 298 308
224 223 222 233 242 239 105 178 213 284 13 173 188 188 180 153 127 133 139 139 135 130 124 122 116 109 108 114 120 111 91 73 56 50 32 19 5 338 23 7 333 319 304 288
232 254 248 239 244 43 169 247 286 303 263 216 198 177 162 150 144 144 142 139 135 130 125 123 120 115 109 111 114 107 89 84 71 42 26 8 357 347 354 351 348 322 308 307
206 242 246 244 247 278 235 255 316 334 320 169 165 160 157 150 146 143 140 137 134 129 126 123 120 114 102 92 85 90 99 94 78 35 8 350 345 354 5 340 342 336 328 319
241 216 232 238 245 236 220 338 14 53 81 119 134 144 148 147 147 145 142 139 136 132 128 128 122 113 103 95 89 90 90 80 30 2 355 338 347 359 341 336 342 322 339 334
233 236 244 250 255 261 240 333 16 94 96 123 132 135 139 146 146 143 141 140 138 134 132 128 120 115 112 104 92 82 80 70 355 332 325 325 329 343 322 325 336 15 340 15
Height
1504 1502 1499 1496 1495 1495 1496 1497 1499 1498 1498 1500 1500 1500 1502 1506 1508 1509 1511 1513 1515 1517 1519 1520 1521 1522 1522 1522 1522 1522 1522 1522 1521 1522 1522 1521 1521 1521 1521 1521 1520 1520 1519 1519
1501 1499 1495 1495 1495 1495 1496 1498 1498 1498 1498 1499 1500 1500 1500 1503 1505 1507 1509 1511 1513 1516 1518 1519 1521 1521 1522 1522 1522 1522 1522 1522 1522 1522 1522 1522 1522 1522 1521 1521 1520 1520 1520 1519
1497 1494 1494 1495 1496 1497 1496 1496 1497 1499 1498 1497 1499 1500 1500 1501 1504 1506 1508 1510 1512 1514 1516 1518 1520 1521 1521 1522 1522 1522 1522 1522 1522 1522 1522 1522 1522 1522 1522 1521 1521 1520 1520 1519
1494 1494 1495 1495 1495 1494 1497 1493 1495 1497 1499 1497 1499 1504 1497 1497 1500 1503 1505 1507 1510 1512 1514 1516 1518 1519 1520 1521 1522 1521 1521 1521 1521 1521 1522 1522 1522 1522 1521 1521 1521 1520 1520 1519
1493 1492 1494 1495 1493 1493 1494 1493 1494 1495 1496 1496 1495 1500 1495 1494 1498 1499 1502 1505 1507 1510 1512 1514 1516 1518 1519 1520 1520 1520 1520 1520 1520 1520 1521 1521 1521 1521 1521 1521 1520 1520 1520 1519
1490 1491 1492 1491 1491 1493 1493 1494 1494 1493 1492 1504 1496 1500 1498 1492 1494 1495 1499 1503 1506 1508 1510 1512 1515 1516 1518 1518 1519 1520 1519 1519 1519 1519 1520 1520 1520 1520 1520 1520 1520 1520 1520 1519
1492 1490 1490 1491 1492 1492 1492 1495 1505 1508 1506 1502 1492 1497 1495 1489 1490 1493 1497 1500 1503 1506 1508 1510 1513 1514 1516 1517 1518 1518 1518 1518 1518 1519 1518 1518 1519 1519 1519 1519 1519 1519 1519 1519
1493 1493 1487 1488 1489 1490 1488 1490 1505 1514 1508 1496 1493 1496 1489 1488 1492 1494 1497 1499 1502 1504 1506 1509 1511 1512 1514 1515 1516 1517 1517 1517 1517 1517 1517 1517 1517 1518 1519 1518 1518 1518 1518 1518
1486 1489 1483 1485 1486 1486 1488 1487 1483 1492 1494 1499 1491 1489 1486 1488 1491 1494 1496 1498 1500 1503 1505 1507 1509 1511 1512 1513 1514 1515 1515 1515 1516 1516 1516 1516 1516 1516 1516 1516 1516 1516 1516 1516
1480 1489 1483 1485 1486 1486 1484 1482 1487 1493 1507 1508 1497 1491 1488 1490 1490 1491 1494 1497 1500 1502 1504 1506 1508 1509 1510 1511 1513 1514 1514 1514 1514 1514 1515 1515 1515 1514 1514 1514 1514 1514 1514 1513
1479 1486 1486 1485 1486 1484 1486 1486 1486 1487 1492 1501 1504 1494 1480 1484 1487 1489 1493 1496 1499 1501 1503 1505 1507 1508 1509 1510 1511 1512 1513 1513 1513 1513 1513 1513 1513 1513 1513 1513 1512 1512 1512 1511
1480 1480 1485 1482 1480 1480 1480 1481 1483 1494 1497 1493 1494 1492 1480 1484 1487 1489 1492 1496 1499 1501 1503 1504 1506 1507 1508 1509 1510 1510 1511 1512 1512 1512 1512 1512 1512 1512 1511 1511 1510 1510 1510 1510
1481 1483 1492 1490 1487 1484 1482 1480 1480 1480 1485 1489 1494 1491 1481 1485 1487 1490 1493 1496 1499 1501 1503 1504 1505 1507 1508 1508 1508 1509 1510 1511 1511 1511 1511 1510 1510 1510 1510 1509 1508 1508 1508 1508
1481 1480 1484 1489 1483 1478 1483 1481 1480 1481 1486 1487 1485 1482 1481 1484 1487 1491 1494 1496 1499 1501 1502 1504 1505 1506 1507 1507 1508 1508 1509 1510 1509 1509 1509 1509 1508 1508 1508 1507 1507 1506 1506 1506
1480 1480 1478 1476 1474 1475 1477 1478 1478 1480 1477 1481 1479 1478 1478 1482 1486 1490 1494 1496 1498 1500 1502 1503 1505 1506 1506 1506 1507 1507 1508 1508 1508 1508 1507 1507 1507 1506 1506 1505 1505 1505 1504 1504
1480 1481 1479 1480 1476 1475 1478 1476 1475 1476 1475 1476 1477 1478 1477 1482 1486 1491 1494 1496 1498 1500 1501 1503 1504 1505 1505 1505 1506 1506 1506 1506 1506 1506 1506 1505 1505 1504 1504 1504 1503 1503 1503 1502
1478 1482 1484 1481 1476 1478 1482 1474 1473 1473 1471 1473 1477 1476 1479 1482 1486 1490 1493 1495 1497 1499 1501 1502 1503 1504 1504 1505 1505 1505 1505 1505 1505 1505 1505 1504 1504 1504 1503 1503 1502 1501 1501 1500
1481 1483 1480 1478 1483 1494 1474 1467 1468 1471 1471 1471 1471 1474 1478 1482 1486 1490 1492 1495 1497 1499 1501 1502 1502 1503 1504 1504 1504 1504 1504 1505 1505 1504 1504 1503 1503 1503 1502 1501 1501 1500 1499 1498
1480 1481 1479 1479 1483 1479 1471 1468 1470 1472 1473 1471 1473 1476 1480 1484 1487 1489 1492 1494 1496 1499 1500 1501 1502 1502 1503 1503 1503 1503 1504 1504 1504 1504 1503 1503 1502 1502 1501 1500 1499 1498 1497 1496
1479 1479 1479 1479 1485 1485 1470 1466 1469 1472 1475 1472 1474 1477 1480 1483 1482 1485 1491 1494 1496 1498 1499 1500 1501 1501 1502 1502 1502 1503 1503 1503 1503 1503 1503 1502 1501 1500 1500 1499 1498 1497 1496 1495
1477 1479 1478 1478 1479 1469 1465 1467 1470 1479 1475 1473 1474 1476 1479 1480 1481 1486 1490 1493 1495 1497 1498 1499 1500 1500 1501 1501 1501 1502 1502 1502 1502 1502 1502 1501 1500 1499 1498 1497 1496 1495 1495 1494
1471 1472 1476 1476 1479 1474 1468 1468 1470 1472 1473 1473 1475 1477 1479 1481 1484 1486 1489 1492 1495 1496 1498 1499 1499 1500 1500 1500 1501 1501 1501 1501 1501 1501 1500 1500 1499 1498 1497 1496 1495 1494 1493 1492
1469 1468 1465 1469 1470 1470 1470 1471 1472 1473 1474 1474 1476 1477 1480 1482 1485 1487 1490 1492 1494 1496 1497 1498 1499 1499 1499 1500 1500 1500 1500 1500 1500 1500 1499 1498 1497 1497 1496 1495 1494 1493 1492 1491
1469 1472 1469 1469 1467 1470 1471 1472 1473 1473 1474 1474 1476 1477 1479 1482 1485 1487 1489 1491 1493 1495 1496 1498 1498 1499 1499 1499 1499 1499 1499 1498 1498 1498 1498 1497 1496 1495 1494 1493 1493 1492 1491 1490
1468 1471 1469 1470 1470 1471 1472 1473 1473 1474 1474 1475 1476 1477 1479 1481 1484 1486 1488 1490 1492 1494 1495 1497 1497 1498 1498 1498 1498 1498 1498 1497 1497 1497 1496 1496 1495 1494 1493 1492 1491 1490 1489 1488
1469 1469 1469 1467 1470 1470 1472 1473 1474 1474 1474 1475 1476 1478 1480 1482 1484 1486 1488 1490 1491 1493 1494 1495 1496 1497 1497 1497 1498 1498 1497 1496 1496 1495 1495 1494 1494 1493 1492 1490 1489 1488 1487 1486